[[{"header":{"parameterUnit":"m.s-1","parameterCategory":1,"la1":30.2991,"la2":30.254,"lo1":-89.0895,"lo2":-89.0444,"dy":0.0017,"dx":0.0017,"nx":28,"ny":28,"refTime":"2024-03-23T09:00:00:Z","depth":0,"parameterNumber":2,"parameterNumberName":"U-component_of_WINDS"},"data":[0,0,0,0,0,0,0,0,0,0,0,0,0,0,0,0,0,0,0,0,0,0,0,0,0,0,0,0,0,0,0,0,0,0,0,0,0,0,0,0,0,0,0,0,0,0,0,0,0,0,0,0,0,0,0,0,0,0,-3.8339,-3.8339,0,-3.8413,-3.8414,-3.8415,-3.83,-3.8296,-3.8292,-3.8289,-3.8366,-3.8372,-3.8377,0,0,0,0,0,0,0,0,0,0,0,0,0,-3.8097,-3.8102,-3.8338,-3.8339,-3.834,-3.8413,-3.8414,-3.8415,-3.8301,-3.8296,-3.8291,-3.8287,-3.8364,-3.8371,-3.8378,0,0,0,0,0,0,0,0,0,0,0,0,0,-3.819,-3.8104,-3.8338,-3.8292,-3.8289,-3.8413,-3.8414,-3.8415,-3.8302,-3.8296,-3.829,-3.8285,-3.8362,-3.837,-3.8379,-3.8552,0,0,-3.8405,-3.8409,0,0,0,0,0,0,0,0,-3.8185,-3.8199,-3.8298,-3.8296,-3.8292,-3.8341,-3.8357,-3.8461,-3.8304,-3.8297,-3.8289,-3.8282,-3.8363,-3.8371,-3.8398,-3.8555,-3.8559,-3.8406,-3.8411,-3.8415,-3.8418,0,0,0,0,0,0,0,-3.8178,-3.8195,-3.8368,-3.83,-3.8296,-3.8268,-3.8274,-3.8376,-3.8363,-3.8297,-3.8289,-3.8299,-3.836,-3.839,-3.8399,-3.856,-3.8406,-3.8414,-3.8419,-3.8422,-3.8861,-3.8867,0,0,0,0,0,0,-3.8178,-3.819,-3.8365,-3.837,-3.8223,-3.8277,-3.8284,-3.8332,-3.8361,-3.836,-3.8304,-3.8294,-3.8378,-3.8389,-3.8401,-3.8605,-3.8415,-3.8423,-3.8428,-3.8854,-3.8862,-3.8869,0,0,0,0,0,0,-3.8173,-3.8194,-3.8362,-3.8278,-3.8297,-3.8287,-3.8341,-3.8336,-3.8366,-3.8366,-3.8363,-3.8338,-3.8374,-3.8389,-3.8515,-3.8606,-3.8427,-3.8435,-3.8847,-3.8857,-3.8866,-3.9014,0,0,0,0,0,0,-3.8166,-3.8193,-3.8259,-3.828,-3.8302,-3.8476,-3.8347,-3.8342,-3.8381,-3.8368,-3.8397,-3.8396,-3.837,-3.8502,-3.8523,-3.8615,-3.8442,-3.8838,-3.8851,-3.8863,-3.9001,-3.9028,-3.9051,0,0,0,0,0,-3.8158,-3.8299,-3.8263,-3.8285,-3.8384,-3.8481,-3.8493,-3.8461,-3.8389,-3.8455,-3.8455,-3.8395,-3.8592,-3.8516,-3.8539,-3.8634,-3.8833,-3.8848,-3.8862,-3.899,-3.9023,-3.905,0,0,0,0,0,0,-3.8289,-3.8301,-3.8262,-3.8413,-3.8447,-3.8461,-3.8544,-3.8496,-3.8552,-3.8537,-3.8494,-3.8502,-3.8637,-3.8647,-3.8562,-3.8802,-3.87,-3.872,-3.8791,-3.8821,-3.8846,-3.8841,-3.8449,0,0,0,0,0,-3.8336,-3.8413,-3.8419,-3.8552,-3.8571,-3.8555,-3.8596,-3.8567,-3.8601,-3.8615,-3.8624,-3.8659,-3.8728,-3.8775,-3.8839,-3.9001,-3.9006,-3.9078,-3.9103,-3.9123,-3.9141,-3.9227,-3.9259,-3.8917,-3.8917,-3.8916,0,0,-3.8433,-3.8449,-3.85,-3.8579,-3.8601,-3.8683,-3.8568,-3.8658,-3.8718,-3.8628,-3.8747,-3.8755,-3.8791,-3.8936,-3.9,-3.8949,-3.9236,-3.9142,-3.9158,-3.9165,-3.9246,-3.9278,-3.9307,-3.8927,-3.8925,-3.8923,0,0,-3.8651,-3.8671,-3.8784,-3.8809,-3.8844,-3.8832,-3.8859,-3.8881,-3.8882,-3.9001,-3.8935,-3.9005,-3.9126,-3.9154,-3.9184,-3.9411,-3.9358,-3.9433,-3.9563,-3.9647,-3.9674,-3.9698,-3.9779,-3.9808,-3.945,-3.9451,-3.9451,0,-3.8768,-3.8887,-3.8848,-3.8943,-3.8979,-3.89,-3.9014,-3.904,-3.9095,-3.9122,-3.9064,-3.9213,-3.9232,-3.9381,-3.9436,-3.9463,-3.9493,-3.943,-3.9673,-3.9697,-3.9718,-3.9795,-3.9826,-3.946,-3.9459,-3.9458,-3.9457,0,-3.9029,-3.9112,-3.9199,-3.9254,-3.9299,-3.9403,-3.9379,-3.943,-3.9397,-3.9391,-3.9512,-3.9531,-3.9597,-3.963,-3.96,-3.9776,-3.9743,-3.968,-3.9577,-3.976,-3.9832,-3.9861,-3.9472,-3.9469,-3.9466,-3.9464,0,0,-3.9335,-3.9364,-3.9397,-3.942,-3.9452,-3.9516,-3.9616,-3.968,-3.9724,-3.9764,-3.9847,-3.995,-3.9891,-3.9925,-3.9896,-3.997,-4.0149,-3.9898,-3.9898,-3.9944,-4.0344,-4.0392,-4.0427,-4.0113,-4.0118,-4.0122,-4.0341,0,-3.9553,-3.9725,-3.9691,-3.986,-3.9936,-3.9861,-3.9948,-3.9977,-3.9974,-4.0037,-4.0033,-4.0107,-4.0024,-4.0044,-4.0113,-4.0112,-4.0228,-4.0096,-4.019,-4.0193,-4.0184,-4.0464,-4.0516,-4.0721,-4.0368,-4.0373,-4.0376,0,-3.9831,-3.988,-4.0057,-4.0075,-4.0106,-4.0185,-4.024,-4.0302,-4.0333,-4.0325,-4.0362,-4.0319,-4.0417,-4.0312,-4.0447,-4.0358,-4.0393,-4.0398,-4.0405,-4.0414,-4.0297,-4.0481,-4.0785,-4.0817,-4.042,-4.0417,-4.0413,0,-4.0037,-4.0147,-4.0267,-4.0289,-4.0314,-4.0371,-4.0384,-4.0408,-4.0449,-4.0496,-4.0522,-4.0581,-4.0614,-4.066,-4.0634,-4.0559,-4.0773,-4.0666,-4.077,-4.0771,-4.082,-4.0817,-4.1135,-4.0841,-4.0841,-4.084,-4.084,0,-4.0285,-4.0396,-4.0359,-4.0433,-4.0554,-4.0514,-4.0635,-4.0639,-4.0662,-4.0734,-4.0672,-4.0742,-4.0702,-4.0768,-4.0748,-4.0862,-4.0877,-4.0874,-4.0867,-4.088,-4.0881,-4.0904,-4.089,-4.0848,-4.0847,-4.0845,-4.0844,0,-4.0536,-4.0517,-4.0642,-4.0654,-4.066,-4.0749,-4.0759,-4.0828,-4.0818,-4.0911,-4.093,-4.0916,-4.0991,-4.0968,-4.1049,-4.1035,-4.1181,-4.1155,-4.1171,-4.1165,-4.127,-4.1261,-4.1615,-4.166,-4.1337,-4.134,-4.1342,0,-4.0696,-4.078,-4.0801,-4.0845,-4.0862,-4.0934,-4.0974,-4.0937,-4.0981,-4.1021,-4.1085,-4.1154,-4.1207,-4.1329,-4.1326,-4.1387,-4.1363,-4.1483,-4.1372,-4.1382,-4.1366,-4.1362,-4.137,-4.1506,-4.151,-4.1513,-4.1515,0,-4.0983,-4.0968,-4.1029,-4.1086,-4.1135,-4.1178,-4.1216,-4.1255,-4.122,-4.1273,-4.1348,-4.1389,-4.147,-4.154,-4.1595,-4.1607,-4.1557,-4.155,-4.1577,-4.1592,-4.1598,-4.1596,-4.1232,-4.1543,-4.154,-4.1538,-4.1536,-4.1535,-4.1194,-4.1264,-4.129,-4.1358,-4.1382,-4.1418,-4.1483,-4.1481,-4.1543,-4.1606,-4.1579,-4.1666,-4.1693,-4.1761,-4.1781,-4.1848,-4.1802,-4.1842,-4.1852,-4.1863,-4.1876,-4.1586,-4.1858,-4.1857,-4.1856,-4.1855,-4.1855,0,-4.1478,-4.149,-4.1553,-4.1607,-4.1661,-4.1606,-4.1644,-4.1693,-4.177,-4.1799,-4.1852,-4.1938,-4.2004,-4.2005,-4.2067,-4.212,-4.2098,-4.2138,-4.2134,-4.2138,-4.1914,-4.1884,-4.2154,-4.2154,-4.2154,-4.2154,-4.2154,-4.2154,-4.1632,-4.1747,-4.1736,-4.1862,-4.1873,-4.1957,-4.1983,-4.2016,-4.2039,-4.2137,-4.2192,-4.2191,-4.2209,-4.2271,-4.2329,-4.2327,-4.2353,-4.2402,-4.2392,-4.2183,-4.2153,-4.2125,-4.2097,-4.2408,-4.2408,-4.261,-4.2612,-4.2614]},{"header":{"parameterUnit":"m.s-1","parameterCategory":1,"la1":30.2991,"la2":30.254,"lo1":-89.0895,"lo2":-89.0444,"dy":0.0017,"dx":0.0017,"nx":28,"ny":28,"refTime":"2024-03-23T09:00:00:Z","depth":0,"parameterNumber":3,"parameterNumberName":"V-component_of_WINDS"},"data":[0,0,0,0,0,0,0,0,0,0,0,0,0,0,0,0,0,0,0,0,0,0,0,0,0,0,0,0,0,0,0,0,0,0,0,0,0,0,0,0,0,0,0,0,0,0,0,0,0,0,0,0,0,0,0,0,0,0,-4.521,-4.5211,0,-4.5286,-4.5287,-4.5288,-4.5227,-4.5225,-4.5222,-4.522,-4.5295,-4.53,-4.5304,0,0,0,0,0,0,0,0,0,0,0,0,0,-4.5008,-4.5012,-4.521,-4.5211,-4.5212,-4.5286,-4.5287,-4.5288,-4.5228,-4.5224,-4.5221,-4.5218,-4.5294,-4.5299,-4.5304,0,0,0,0,0,0,0,0,0,0,0,0,0,-4.5091,-4.5013,-4.521,-4.5191,-4.519,-4.5286,-4.5287,-4.5288,-4.5228,-4.5224,-4.5221,-4.5217,-4.5292,-4.5299,-4.5305,-4.5423,0,0,-4.5325,-4.5328,0,0,0,0,0,0,0,0,-4.5086,-4.5098,-4.5193,-4.5192,-4.5191,-4.5243,-4.5243,-4.5334,-4.5229,-4.5214,-4.522,-4.5215,-4.5281,-4.5288,-4.5311,-4.5427,-4.543,-4.5326,-4.533,-4.5333,-4.5335,0,0,0,0,0,0,0,-4.5081,-4.5095,-4.524,-4.5194,-4.5193,-4.5177,-4.5184,-4.526,-4.5268,-4.5215,-4.521,-4.522,-4.528,-4.5305,-4.5312,-4.5431,-4.5326,-4.5332,-4.5336,-4.5338,-4.5645,-4.5649,0,0,0,0,0,0,-4.5077,-4.509,-4.5237,-4.5242,-4.5128,-4.5184,-4.5192,-4.523,-4.5267,-4.5269,-4.5224,-4.5217,-4.5295,-4.5305,-4.5315,-4.5454,-4.5333,-4.5339,-4.5343,-4.5641,-4.5646,-4.5651,0,0,0,0,0,0,-4.5073,-4.5091,-4.5234,-4.5165,-4.5182,-4.5191,-4.5235,-4.5234,-4.5259,-4.5274,-4.5274,-4.5248,-4.5293,-4.5305,-4.5396,-4.5456,-4.5342,-4.5348,-4.5636,-4.5643,-4.5648,-4.5735,0,0,0,0,0,0,-4.5068,-4.509,-4.5136,-4.5167,-4.5186,-4.5316,-4.5239,-4.5238,-4.5271,-4.5263,-4.5297,-4.5299,-4.5291,-4.5387,-4.5403,-4.5463,-4.5353,-4.5631,-4.5639,-4.5646,-4.5727,-4.5743,-4.5757,0,0,0,0,0,-4.5061,-4.5157,-4.5139,-4.5157,-4.5244,-4.532,-4.5331,-4.532,-4.5276,-4.5321,-4.533,-4.5298,-4.5447,-4.5397,-4.5414,-4.5477,-4.5627,-4.5637,-4.5646,-4.572,-4.574,-4.5757,0,0,0,0,0,0,-4.5133,-4.5161,-4.5141,-4.5251,-4.5283,-4.531,-4.5367,-4.5342,-4.5388,-4.5379,-4.5363,-4.5371,-4.5467,-4.5481,-4.5425,-4.5592,-4.553,-4.5543,-4.558,-4.5599,-4.5614,-4.5609,-4.5359,0,0,0,0,0,-4.5162,-4.5222,-4.5243,-4.5338,-4.5355,-4.5358,-4.5391,-4.538,-4.5413,-4.5426,-4.5442,-4.5475,-4.5528,-4.5564,-4.5615,-4.5728,-4.5734,-4.578,-4.5795,-4.5808,-4.5819,-4.5878,-4.5899,-4.5682,-4.5681,-4.5681,0,0,-4.5222,-4.5245,-4.5284,-4.5353,-4.5377,-4.5438,-4.5371,-4.5439,-4.5483,-4.5436,-4.5523,-4.5536,-4.5571,-4.5673,-4.5719,-4.5688,-4.588,-4.582,-4.583,-4.5835,-4.589,-4.5911,-4.5929,-4.5688,-4.5687,-4.5686,0,0,-4.5363,-4.5387,-4.5467,-4.5493,-4.553,-4.5531,-4.5551,-4.558,-4.5587,-4.5674,-4.5639,-4.5691,-4.5785,-4.5811,-4.5836,-4.5984,-4.5955,-4.6001,-4.6082,-4.6139,-4.6156,-4.6171,-4.6223,-4.6242,-4.6013,-4.6013,-4.6013,0,-4.5433,-4.5525,-4.5512,-4.5582,-4.5613,-4.5573,-4.5653,-4.5678,-4.573,-4.5751,-4.5716,-4.5831,-4.5852,-4.5959,-4.5995,-4.6017,-4.6037,-4.5998,-4.6155,-4.617,-4.6184,-4.6233,-4.6252,-4.6018,-4.6018,-4.6017,-4.6017,0,-4.5608,-4.5672,-4.5732,-4.5784,-4.5821,-4.5896,-4.5893,-4.5932,-4.5917,-4.5921,-4.6009,-4.6032,-4.6086,-4.611,-4.6097,-4.6215,-4.6194,-4.6157,-4.6094,-4.621,-4.6256,-4.6274,-4.6026,-4.6024,-4.6022,-4.6021,0,0,-4.5798,-4.584,-4.5862,-4.5884,-4.5921,-4.597,-4.6042,-4.6095,-4.6128,-4.6164,-4.6223,-4.6302,-4.6268,-4.6297,-4.6285,-4.6336,-4.645,-4.6292,-4.6293,-4.632,-4.6579,-4.6606,-4.6628,-4.643,-4.6434,-4.6437,-4.6576,0,-4.5939,-4.6066,-4.6056,-4.6175,-4.6233,-4.6195,-4.6257,-4.6286,-4.6292,-4.634,-4.6346,-4.6402,-4.6353,-4.637,-4.6418,-4.6426,-4.6501,-4.6415,-4.6484,-4.6487,-4.6476,-4.6653,-4.6682,-4.6812,-4.6594,-4.6597,-4.6599,0,-4.6122,-4.6165,-4.629,-4.6317,-4.6341,-4.6397,-4.6444,-4.6491,-4.6522,-4.6522,-4.6554,-4.6533,-4.6604,-4.6539,-4.6635,-4.6577,-4.6604,-4.6612,-4.6616,-4.6622,-4.655,-4.6662,-4.6854,-4.6873,-4.6627,-4.6625,-4.6623,0,-4.6246,-4.6335,-4.6421,-4.6441,-4.6475,-4.6515,-4.6531,-4.6558,-4.659,-4.663,-4.665,-4.6698,-4.6724,-4.676,-4.6752,-4.6706,-4.685,-4.6785,-4.6851,-4.6852,-4.6884,-4.6882,-4.7082,-4.6902,-4.6902,-4.6901,-4.6901,0,-4.6406,-4.6483,-4.6477,-4.6531,-4.6616,-4.6602,-4.6686,-4.6697,-4.6721,-4.6774,-4.6743,-4.6793,-4.678,-4.6829,-4.6823,-4.6903,-4.6915,-4.6916,-4.6913,-4.6919,-4.6919,-4.6936,-4.6927,-4.6907,-4.6905,-4.6904,-4.6904,0,-4.6559,-4.6559,-4.665,-4.6674,-4.6681,-4.6743,-4.6763,-4.6811,-4.6814,-4.6881,-4.6896,-4.6899,-4.6955,-4.6951,-4.7014,-4.701,-4.7108,-4.7095,-4.7098,-4.7095,-4.7161,-4.7155,-4.7379,-4.7407,-4.721,-4.7212,-4.7214,0,-4.6661,-4.672,-4.675,-4.6783,-4.6802,-4.6856,-4.6888,-4.6876,-4.691,-4.6949,-4.6993,-4.7046,-4.7088,-4.7179,-4.7186,-4.7234,-4.7221,-4.7296,-4.7228,-4.7231,-4.7221,-4.7217,-4.7222,-4.731,-4.7312,-4.7314,-4.7315,0,-4.684,-4.6837,-4.6885,-4.6932,-4.6971,-4.7008,-4.7041,-4.707,-4.7061,-4.7101,-4.7158,-4.719,-4.7254,-4.7307,-4.7351,-4.7366,-4.7339,-4.7336,-4.7354,-4.736,-4.7359,-4.7359,-4.7134,-4.7331,-4.733,-4.7329,-4.7328,-4.7327,-4.6971,-4.702,-4.7049,-4.7103,-4.7126,-4.7158,-4.7204,-4.7212,-4.726,-4.7311,-4.73,-4.7364,-4.7391,-4.7448,-4.7467,-4.7516,-4.7488,-4.7514,-4.7521,-4.7527,-4.7534,-4.7351,-4.7524,-4.7523,-4.7523,-4.7523,-4.7522,0,-4.7148,-4.7164,-4.7213,-4.7261,-4.7302,-4.7274,-4.7308,-4.7345,-4.7401,-4.7429,-4.7471,-4.7535,-4.7586,-4.7596,-4.7644,-4.7681,-4.767,-4.7694,-4.7691,-4.7694,-4.7557,-4.7536,-4.7702,-4.7702,-4.7702,-4.7702,-4.7702,-4.7702,-4.7245,-4.7327,-4.7326,-4.7419,-4.7434,-4.7497,-4.7519,-4.7547,-4.7569,-4.7643,-4.7684,-4.7691,-4.7712,-4.776,-4.7805,-4.7806,-4.7825,-4.7854,-4.7851,-4.7722,-4.7704,-4.7687,-4.7667,-4.7858,-4.7859,-4.7984,-4.7985,-4.7986]}]]